map of HBA home
HBA - Airport
Location
City:  Hobart, Tasmania, Australia
ICAO:YMHB
IATA:HBA

Details
Type:Airport (Aerodrome, Airfield)
Use:Public/Civil, International (customs port of entry)
Latitude:4250'10"S (-42.836110)
Longitude:14730'37"E (147.510278)
Datum:WGS 1984
Elevation:13 ft (4 m)
Variation:15.16E (WMM2015v2 magnetic declination)
0.04 annual change
Runways:1
Longest:7385 × 148 ft (2251 × 45 m), paved

Time
Time Zone:UTC+10 (DST+11)
Local Time:

Weather
METAR:YMHB 041400Z 18011KT 8000 SCT033 BKN045 16/06 Q1020 RF00.0/000.0 FU
TAF:YMHB 041111Z 0412/0512 18012KT 8000 FU -SHRA BKN025
FM041500 20008KT 9999 -SHRA SCT015 BKN020
FM050000 14014KT 9999 BKN030
FM050600 09012KT 9999 FEW025 BKN030

Related Locations
Nearby:
Farthest:CVU: 12201 mi / 19636 km
Corvo Island, 20, PT

Find:

   beyond  
but within

Other Information
Maps:
NOTAMs:
Links:
Sources:

  
  • flag of Australia
  • flag of Tasmania
  

Sectional Chart

Flight Planning
at skyvector.com

Satellite Image

Google Maps Satellite view

 

Copyright © 2004-2019 Karl L. Swartz. All rights reserved.
The Great Circle Mapper name and logo are trademarks of the Great Circle Mapper.
All other trademarks mentioned herein belong to their respective owners.
Please see credits for attibutions and further copyright information.

  Follow gcmap on Facebook Follow gcmap on Twitter GCmap on LinkedIn

hCard Microformat

Geo Microformat